Regional Weather Roundup
Issued by NWS

Home | Current Version | Previous Version | Graphics & Text | Print | Product List | Glossary Off
Versions: 1 2 3 4 5 6 7 8 9 10 11 12 13 14 15 16 17 18 19 20 21 22 23 24 25 26 27 28 29 30 31 32 33 34 35 36 37 38 39 40 41 42 43 44 45 46 47 48 49 50

000
ASUS43 KLSX 260307
RWRMO

WEATHER SUMMARY FOR MISSOURI
NATIONAL WEATHER SERVICE SPRINGFIELD MO
1000 PM CDT TUE APR 25 2017

NOTE: "FAIR" INDICATES FEW OR NO CLOUDS BELOW 12,000 FEET WITH NO
       SIGNIFICANT WEATHER AND/OR OBSTRUCTIONS TO VISIBILITY.
       CURRENT SKY AND/OR WEATHER CONDITIONS ARE NOT AVAILABLE FOR
       CHILLICOTHE AND FARMINGTON.

MOZ001>031-035>038-043-044-053-054-260400-
...NORTHERN AND WESTERN MISSOURI...

CITY           SKY/WX    TMP DP  RH WIND       PRES   REMARKS
KANSAS CTY INT LGT RAIN  55  50  83 NW14G22   29.52R
KANSAS C DTWN  LGT RAIN  62  52  69 NW13G24   29.49R
LEE`S SUMMIT   LGT RAIN  65  60  84 N3        29.47R
ST JOSEPH      LGT RAIN  53  47  79 N17       29.54R
CHILLICOTHE      N/A     64  56  75 CALM      29.48R
KIRKSVILLE     CLOUDY    65  57  75 CALM      29.46R

$$
MOZ066>068-077>081-088>096-101>105-260400-
...SOUTHWEST MISSOURI...

CITY           SKY/WX    TMP DP  RH WIND       PRES   REMARKS
SPRINGFIELD    CLOUDY    72  61  68 W10       29.51R
JOPLIN         CLOUDY    71  62  73 S12       29.45S

$$
MOZ032>034-039>042-045>050-055>058-069>072-260400-
...CENTRAL MISSOURI...

CITY           SKY/WX    TMP DP  RH WIND       PRES   REMARKS
COLUMBIA       CLOUDY    72  56  57 SE6       29.46R
JEFFERSON CITY MOCLDY    75  55  49 SE9       29.46R
ROLLA          MOCLDY    69  53  56 S13G25    29.50R
SEDALIA        MOCLDY    72  59  63 CALM      29.48R
WHITEMAN AFB   CLOUDY    67  64  89 S3        29.46R
OSAGE BEACH    CLOUDY    72  56  57 SE6       29.49R

$$
MOZ051-052-059>065-260400-
...EAST CENTRAL MISSOURI...

CITY           SKY/WX    TMP DP  RH WIND       PRES   REMARKS
ST LOUIS INTL  MOCLDY    75  49  39 S12       29.53R
SPIRIT OF STL  CLOUDY    72  52  49 S6        29.51R
ST CHARLES     CLOUDY    73  51  46 S13       29.51R

$$
MOZ072>076-082>087-097>100-106>115-260400-
...SOUTH CENTRAL AND SOUTHEAST MISSOURI...

CITY           SKY/WX    TMP DP  RH WIND       PRES   REMARKS
CAPE GIRARDEAU PTCLDY    68  53  58 S8        29.58R
FARMINGTON     CLEAR     67  52  58 S8        29.57R
POPLAR BLUFF   CLEAR     68  55  63 S7        29.57R
WEST PLAINS    CLOUDY    69  52  54 S9        29.55R

$$



USA.gov is the U.S. government's official web portal to all federal, state and local government web resources and services.